Time,TemperatureF,DewpointF,PressureIn,WindDirection,WindDirectionDegrees,WindSpeedMPH,WindSpeedGustMPH,Humidity,HourlyPrecipIn,Conditions,Clouds,dailyrainin,SoftwareType,DateUTC
2013-09-20 00:00:00,62.7,60.7,29.32,SSW,202,0.0,0.6,93,0.00,,,-99.99,VWS V12.07,2013-09-20 05:00:00,
2013-09-20 00:05:00,62.7,60.7,29.32,SSW,202,0.0,0.0,93,0.00,,,-99.99,VWS V12.07,2013-09-20 05:05:00,
2013-09-20 00:10:00,62.7,60.7,29.33,SSW,202,0.0,0.0,93,0.00,,,-99.99,VWS V12.07,2013-09-20 05:10:00,
2013-09-20 00:15:00,62.7,60.7,29.33,SSW,202,0.0,0.0,93,0.00,,,-99.99,VWS V12.07,2013-09-20 05:15:00,
2013-09-20 00:20:00,62.7,60.7,29.34,SSW,202,0.0,0.0,93,0.00,,,-99.99,VWS V12.07,2013-09-20 05:20:00,
2013-09-20 00:25:00,62.7,60.7,29.34,SSW,202,0.0,0.0,93,0.00,,,-99.99,VWS V12.07,2013-09-20 05:25:00,
2013-09-20 00:30:00,62.7,60.7,29.34,SSW,202,0.0,0.0,93,0.00,,,-99.99,VWS V12.07,2013-09-20 05:30:00,
2013-09-20 00:35:00,62.7,60.7,29.34,SSW,202,0.0,0.0,93,0.00,,,-99.99,VWS V12.07,2013-09-20 05:35:00,
2013-09-20 00:40:00,62.7,60.7,29.34,SSW,202,0.0,0.0,93,0.00,,,-99.99,VWS V12.07,2013-09-20 05:40:00,
2013-09-20 00:50:00,62.7,60.7,29.34,SSW,202,0.0,0.0,93,0.00,,,-99.99,VWS V12.07,2013-09-20 05:50:00,
2013-09-20 00:55:00,62.7,60.7,29.34,SSW,202,0.0,0.0,93,0.00,,,-99.99,VWS V12.07,2013-09-20 05:55:00,
2013-09-20 01:00:00,62.7,60.7,29.33,SSW,202,0.0,0.0,93,0.00,,,-99.99,VWS V12.07,2013-09-20 06:00:00,
2013-09-20 01:05:00,62.7,60.7,29.33,SSW,202,0.0,0.0,93,0.00,,,-99.99,VWS V12.07,2013-09-20 06:05:00,
2013-09-20 01:10:00,62.7,60.7,29.32,SSW,202,0.0,0.0,93,0.00,,,-99.99,VWS V12.07,2013-09-20 06:10:00,
2013-09-20 01:15:00,62.7,60.7,29.32,SSW,202,0.0,0.0,93,0.00,,,-99.99,VWS V12.07,2013-09-20 06:15:00,
2013-09-20 01:20:00,62.7,60.7,29.32,SSW,202,0.0,0.0,93,0.00,,,-99.99,VWS V12.07,2013-09-20 06:20:00,
2013-09-20 01:25:00,62.7,60.7,29.32,SSW,202,0.0,0.0,93,0.00,,,-99.99,VWS V12.07,2013-09-20 06:25:00,
2013-09-20 01:30:00,62.7,60.7,29.32,SSW,202,0.0,0.0,93,0.00,,,-99.99,VWS V12.07,2013-09-20 06:30:00,
2013-09-20 01:35:00,62.7,60.7,29.33,SSW,202,0.0,0.0,93,0.00,,,-99.99,VWS V12.07,2013-09-20 06:35:00,
2013-09-20 01:40:00,62.7,60.7,29.32,SSW,202,0.0,0.0,93,0.00,,,-99.99,VWS V12.07,2013-09-20 06:40:00,
2013-09-20 01:45:00,62.7,60.7,29.33,SSW,202,0.0,0.0,93,0.00,,,-99.99,VWS V12.07,2013-09-20 06:45:00,
2013-09-20 01:50:00,62.7,60.7,29.34,SSW,202,0.0,0.0,93,0.00,,,-99.99,VWS V12.07,2013-09-20 06:50:00,
2013-09-20 01:55:00,62.7,60.7,29.33,SSW,202,0.0,0.0,93,0.00,,,-99.99,VWS V12.07,2013-09-20 06:55:00,
2013-09-20 02:00:00,62.6,60.5,29.33,SSW,202,0.0,0.0,93,0.00,,,-99.99,VWS V12.07,2013-09-20 07:00:00,
2013-09-20 02:05:00,62.6,60.5,29.33,SSW,202,0.0,0.0,93,0.00,,,-99.99,VWS V12.07,2013-09-20 07:05:00,
2013-09-20 02:10:00,62.6,60.5,29.33,SSW,202,0.0,0.0,93,0.00,,,-99.99,VWS V12.07,2013-09-20 07:10:00,
2013-09-20 02:15:00,62.6,60.5,29.33,SSW,202,0.0,0.0,93,0.00,,,-99.99,VWS V12.07,2013-09-20 07:15:00,
2013-09-20 02:20:00,62.7,60.7,29.33,SSW,202,0.0,0.0,93,0.00,,,-99.99,VWS V12.07,2013-09-20 07:20:00,
2013-09-20 02:25:00,62.6,60.5,29.33,SSW,202,0.0,0.0,93,0.00,,,-99.99,VWS V12.07,2013-09-20 07:25:00,
2013-09-20 02:30:00,62.6,60.5,29.33,SSW,202,0.0,0.0,93,0.00,,,-99.99,VWS V12.07,2013-09-20 07:30:00,
2013-09-20 02:35:00,62.6,60.5,29.33,SSW,202,0.0,0.0,93,0.00,,,-99.99,VWS V12.07,2013-09-20 07:35:00,
2013-09-20 02:40:00,62.6,60.5,29.33,SSW,202,0.0,0.0,93,0.00,,,-99.99,VWS V12.07,2013-09-20 07:40:00,
2013-09-20 02:45:00,62.6,60.5,29.33,SSW,202,0.0,0.0,93,0.00,,,-99.99,VWS V12.07,2013-09-20 07:45:00,
2013-09-20 02:50:00,62.6,60.5,29.33,SSW,202,0.0,0.0,93,0.00,,,-99.99,VWS V12.07,2013-09-20 07:50:00,
2013-09-20 02:55:00,62.6,60.5,29.33,SSW,202,0.0,0.0,93,0.00,,,-99.99,VWS V12.07,2013-09-20 07:55:00,
2013-09-20 03:00:00,62.6,60.5,29.33,SSW,202,0.0,0.0,93,0.00,,,-99.99,VWS V12.07,2013-09-20 08:00:00,
2013-09-20 03:05:00,62.6,60.5,29.33,SSW,202,0.0,0.0,93,0.00,,,-99.99,VWS V12.07,2013-09-20 08:05:00,
2013-09-20 03:10:00,62.6,60.5,29.33,SSW,202,0.0,0.0,93,0.00,,,-99.99,VWS V12.07,2013-09-20 08:10:00,
2013-09-20 03:15:00,62.6,60.5,29.32,SSW,202,0.0,0.0,93,0.00,,,-99.99,VWS V12.07,2013-09-20 08:15:00,
2013-09-20 03:20:00,62.6,60.5,29.32,SSW,202,0.0,0.0,93,0.00,,,-99.99,VWS V12.07,2013-09-20 08:20:00,
2013-09-20 03:25:00,62.6,60.5,29.32,SSW,202,0.0,0.0,93,0.00,,,-99.99,VWS V12.07,2013-09-20 08:25:00,
2013-09-20 03:30:00,62.6,60.5,29.31,SSW,202,0.0,0.0,93,0.00,,,-99.99,VWS V12.07,2013-09-20 08:30:00,
2013-09-20 03:35:00,62.6,60.5,29.31,SSW,202,0.0,0.0,93,0.00,,,-99.99,VWS V12.07,2013-09-20 08:35:00,
2013-09-20 03:40:00,62.6,60.5,29.31,SSW,202,0.0,0.0,93,0.00,,,-99.99,VWS V12.07,2013-09-20 08:40:00,
2013-09-20 03:45:00,62.6,60.5,29.31,SSW,202,0.0,0.0,93,0.00,,,-99.99,VWS V12.07,2013-09-20 08:45:00,
2013-09-20 03:50:00,62.6,60.5,29.31,SSW,202,0.0,0.0,93,0.00,,,-99.99,VWS V12.07,2013-09-20 08:50:00,
2013-09-20 03:55:00,62.4,60.3,29.31,SSW,202,0.0,0.0,93,0.00,,,-99.99,VWS V12.07,2013-09-20 08:55:00,
2013-09-20 04:00:00,62.6,60.5,29.31,SSW,202,0.0,0.0,93,0.00,,,-99.99,VWS V12.07,2013-09-20 09:00:00,
2013-09-20 04:05:00,62.6,60.5,29.31,SSW,202,0.0,0.0,93,0.00,,,-99.99,VWS V12.07,2013-09-20 09:05:00,
2013-09-20 04:10:00,62.6,60.8,29.31,SSW,202,0.0,0.0,94,0.00,,,-99.99,VWS V12.07,2013-09-20 09:10:00,
2013-09-20 04:15:00,62.4,60.7,29.31,SSW,202,0.0,2.9,94,0.00,,,-99.99,VWS V12.07,2013-09-20 09:15:00,
2013-09-20 04:20:00,62.6,60.8,29.31,SSW,202,0.0,0.0,94,0.00,,,-99.99,VWS V12.07,2013-09-20 09:20:00,
2013-09-20 04:25:00,62.6,60.8,29.31,SSW,202,0.0,0.0,94,0.00,,,-99.99,VWS V12.07,2013-09-20 09:25:00,
2013-09-20 04:30:00,62.4,60.7,29.31,SSW,202,0.0,0.0,94,0.00,,,-99.99,VWS V12.07,2013-09-20 09:30:00,
2013-09-20 04:35:00,62.6,60.8,29.31,SSW,202,0.0,0.0,94,0.00,,,-99.99,VWS V12.07,2013-09-20 09:35:00,
2013-09-20 04:40:00,62.4,60.7,29.31,SSW,202,0.0,0.0,94,0.00,,,-99.99,VWS V12.07,2013-09-20 09:40:00,
2013-09-20 04:45:00,62.6,60.8,29.31,SSW,202,0.0,0.0,94,0.00,,,-99.99,VWS V12.07,2013-09-20 09:45:00,
2013-09-20 04:50:00,62.6,60.8,29.31,SSW,202,0.0,0.8,94,0.00,,,-99.99,VWS V12.07,2013-09-20 09:50:00,
2013-09-20 04:55:00,62.6,60.8,29.31,SSW,202,0.0,0.8,94,0.00,,,-99.99,VWS V12.07,2013-09-20 09:55:00,
2013-09-20 05:00:00,62.6,60.8,29.31,SSW,202,0.0,0.8,94,0.00,,,-99.99,VWS V12.07,2013-09-20 10:00:00,
2013-09-20 05:05:00,62.6,60.8,29.31,SSW,202,0.0,0.0,94,0.00,,,-99.99,VWS V12.07,2013-09-20 10:05:00,
2013-09-20 05:10:00,62.6,60.8,29.31,SSW,202,0.0,0.0,94,0.00,,,-99.99,VWS V12.07,2013-09-20 10:10:00,
2013-09-20 05:15:00,62.4,60.7,29.31,SSW,202,0.0,0.0,94,0.00,,,-99.99,VWS V12.07,2013-09-20 10:15:00,
2013-09-20 05:20:00,62.4,60.7,29.30,SSW,202,0.0,0.0,94,0.00,,,-99.99,VWS V12.07,2013-09-20 10:20:00,
2013-09-20 05:25:00,62.4,60.7,29.30,SSW,202,0.8,0.8,94,0.00,,,-99.99,VWS V12.07,2013-09-20 10:25:00,
2013-09-20 05:30:00,62.4,60.7,29.30,SSW,202,0.0,0.8,94,0.00,,,-99.99,VWS V12.07,2013-09-20 10:30:00,
2013-09-20 05:35:00,62.4,60.7,29.30,SSW,202,0.0,0.0,94,0.00,,,-99.99,VWS V12.07,2013-09-20 10:35:00,
2013-09-20 05:40:00,62.4,60.7,29.30,SSW,202,0.0,0.0,94,0.00,,,-99.99,VWS V12.07,2013-09-20 10:40:00,
2013-09-20 05:45:00,62.4,60.7,29.30,WSW,248,0.0,0.0,94,0.00,,,-99.99,VWS V12.07,2013-09-20 10:45:00,
2013-09-20 05:50:00,62.4,60.7,29.31,WSW,248,0.0,0.0,94,0.00,,,-99.99,VWS V12.07,2013-09-20 10:50:00,
2013-09-20 05:55:00,62.4,60.7,29.31,WSW,248,0.0,0.0,94,0.00,,,-99.99,VWS V12.07,2013-09-20 10:55:00,
2013-09-20 06:00:00,62.4,60.7,29.31,WSW,248,0.0,0.0,94,0.00,,,-99.99,VWS V12.07,2013-09-20 11:00:00,
2013-09-20 06:05:00,62.4,60.7,29.31,WSW,248,0.0,0.0,94,0.00,,,-99.99,VWS V12.07,2013-09-20 11:05:00,
2013-09-20 06:10:00,62.4,60.7,29.30,WSW,248,0.0,0.0,94,0.00,,,-99.99,VWS V12.07,2013-09-20 11:10:00,
2013-09-20 06:15:00,62.2,60.5,29.30,WSW,248,0.0,0.0,94,0.00,,,-99.99,VWS V12.07,2013-09-20 11:15:00,
2013-09-20 06:20:00,62.2,60.5,29.30,WSW,248,0.0,0.0,94,0.00,,,-99.99,VWS V12.07,2013-09-20 11:20:00,
2013-09-20 06:25:00,62.2,60.5,29.30,WSW,248,0.0,0.0,94,0.00,,,-99.99,VWS V12.07,2013-09-20 11:25:00,
2013-09-20 06:30:00,62.2,60.5,29.30,WSW,248,0.0,0.0,94,0.00,,,-99.99,VWS V12.07,2013-09-20 11:30:00,
2013-09-20 06:35:00,62.2,60.5,29.30,WSW,248,0.0,0.0,94,0.00,,,-99.99,VWS V12.07,2013-09-20 11:35:00,
2013-09-20 06:40:00,62.2,60.5,29.31,WSW,248,0.0,0.0,94,0.00,,,-99.99,VWS V12.07,2013-09-20 11:40:00,
2013-09-20 06:45:00,62.0,60.3,29.31,WSW,248,0.0,0.0,94,0.00,,,-99.99,VWS V12.07,2013-09-20 11:45:00,
2013-09-20 06:50:00,62.0,60.3,29.31,WSW,248,0.0,0.0,94,0.00,,,-99.99,VWS V12.07,2013-09-20 11:50:00,
2013-09-20 06:55:00,62.0,60.3,29.31,WSW,248,0.0,0.0,94,0.00,,,-99.99,VWS V12.07,2013-09-20 11:55:00,
2013-09-20 07:00:00,62.0,60.3,29.32,WSW,248,0.0,0.0,94,0.00,,,-99.99,VWS V12.07,2013-09-20 12:00:00,
2013-09-20 07:05:00,62.0,60.3,29.31,WSW,248,0.0,0.0,94,0.00,,,-99.99,VWS V12.07,2013-09-20 12:05:00,
2013-09-20 07:10:00,62.0,60.3,29.31,WSW,248,0.0,0.0,94,0.00,,,-99.99,VWS V12.07,2013-09-20 12:10:00,
2013-09-20 07:15:00,62.2,60.5,29.32,WSW,248,0.0,0.0,94,0.00,,,-99.99,VWS V12.07,2013-09-20 12:15:00,
2013-09-20 07:20:00,62.2,60.5,29.32,WSW,248,0.0,0.0,94,0.00,,,-99.99,VWS V12.07,2013-09-20 12:20:00,
2013-09-20 07:25:00,62.2,60.5,29.32,WSW,248,1.3,1.3,94,0.00,,,-99.99,VWS V12.07,2013-09-20 12:25:00,
2013-09-20 07:30:00,62.0,60.3,29.32,WSW,248,4.6,4.6,94,0.12,,,-99.99,VWS V12.07,2013-09-20 12:30:00,
2013-09-20 07:35:00,61.8,60.1,29.33,West,270,0.0,4.6,94,0.18,,,-99.99,VWS V12.07,2013-09-20 12:35:00,
2013-09-20 07:40:00,61.7,59.7,29.33,SW,225,0.0,10.2,93,0.18,,,-99.99,VWS V12.07,2013-09-20 12:40:00,
2013-09-20 07:45:00,61.5,59.5,29.33,WSW,248,2.9,10.2,93,0.18,,,-99.99,VWS V12.07,2013-09-20 12:45:00,
2013-09-20 07:50:00,61.1,59.1,29.33,SW,225,0.8,2.9,93,0.18,,,-99.99,VWS V12.07,2013-09-20 12:50:00,
2013-09-20 07:55:00,60.9,58.9,29.34,West,270,0.0,2.9,93,0.18,,,-99.99,VWS V12.07,2013-09-20 12:55:00,
2013-09-20 08:00:00,60.6,58.6,29.34,NNW,338,0.0,2.9,93,0.18,,,-99.99,VWS V12.07,2013-09-20 13:00:00,
2013-09-20 08:05:00,60.6,58.6,29.34,West,270,0.0,2.6,93,0.18,,,-99.99,VWS V12.07,2013-09-20 13:05:00,
2013-09-20 08:10:00,60.4,58.4,29.34,WSW,248,1.7,2.6,93,0.18,,,-99.99,VWS V12.07,2013-09-20 13:10:00,
2013-09-20 08:15:00,60.0,58.0,29.34,SW,225,0.0,2.6,93,0.18,,,-99.99,VWS V12.07,2013-09-20 13:15:00,
2013-09-20 08:20:00,59.9,57.9,29.34,WSW,248,0.0,0.0,93,0.18,,,-99.99,VWS V12.07,2013-09-20 13:20:00,
2013-09-20 08:25:00,59.9,57.9,29.34,NW,315,0.0,0.0,93,0.06,,,-99.99,VWS V12.07,2013-09-20 13:25:00,
2013-09-20 08:30:00,60.0,58.3,29.33,NNE,22,0.0,0.0,94,0.00,,,-99.99,VWS V12.07,2013-09-20 13:30:00,
2013-09-20 08:35:00,59.9,58.2,29.32,WNW,292,0.0,0.0,94,0.00,,,-99.99,VWS V12.07,2013-09-20 13:35:00,
2013-09-20 08:40:00,59.9,58.2,29.32,NW,315,0.0,0.0,94,0.00,,,-99.99,VWS V12.07,2013-09-20 13:40:00,
2013-09-20 08:45:00,59.7,58.0,29.32,NNE,22,0.0,0.0,94,0.00,,,-99.99,VWS V12.07,2013-09-20 13:45:00,
2013-09-20 08:50:00,59.7,58.0,29.32,NNE,22,0.0,0.0,94,0.00,,,-99.99,VWS V12.07,2013-09-20 13:50:00,
2013-09-20 08:55:00,59.7,58.0,29.32,NNE,22,0.0,0.0,94,0.00,,,-99.99,VWS V12.07,2013-09-20 13:55:00,
2013-09-20 09:00:00,59.7,58.0,29.33,NNE,22,0.0,0.0,94,0.00,,,-99.99,VWS V12.07,2013-09-20 14:00:00,
2013-09-20 09:05:00,59.7,58.0,29.33,NNE,22,0.0,0.0,94,0.00,,,-99.99,VWS V12.07,2013-09-20 14:05:00,
2013-09-20 09:10:00,59.9,58.2,29.34,NNE,22,0.0,0.0,94,0.00,,,-99.99,VWS V12.07,2013-09-20 14:10:00,
2013-09-20 09:15:00,59.9,58.2,29.33,NNE,22,0.0,0.0,94,0.00,,,-99.99,VWS V12.07,2013-09-20 14:15:00,
2013-09-20 09:20:00,60.0,58.3,29.33,NNE,22,0.0,0.0,94,0.00,,,-99.99,VWS V12.07,2013-09-20 14:20:00,
2013-09-20 09:25:00,60.0,58.3,29.33,NNE,22,0.0,0.0,94,0.00,,,-99.99,VWS V12.07,2013-09-20 14:25:00,
2013-09-20 09:30:00,60.0,58.3,29.33,NNE,22,0.0,0.0,94,0.00,,,-99.99,VWS V12.07,2013-09-20 14:30:00,
2013-09-20 09:35:00,60.2,58.2,29.33,NNE,22,0.0,0.0,93,0.00,,,-99.99,VWS V12.07,2013-09-20 14:35:00,
2013-09-20 09:40:00,60.4,58.4,29.34,NNE,22,0.0,0.0,93,0.00,,,-99.99,VWS V12.07,2013-09-20 14:40:00,
2013-09-20 09:45:00,60.2,58.2,29.34,SW,225,2.9,2.9,93,0.00,,,-99.99,VWS V12.07,2013-09-20 14:45:00,
2013-09-20 09:50:00,60.2,58.2,29.34,SW,225,0.0,2.9,93,0.00,,,-99.99,VWS V12.07,2013-09-20 14:50:00,
2013-09-20 09:55:00,60.4,58.4,29.34,SW,225,0.0,2.9,93,0.00,,,-99.99,VWS V12.07,2013-09-20 14:55:00,
2013-09-20 10:00:00,60.4,58.4,29.34,SW,225,0.0,3.5,93,0.00,,,-99.99,VWS V12.07,2013-09-20 15:00:00,
2013-09-20 10:05:00,60.6,58.6,29.35,SW,225,0.0,0.0,93,0.00,,,-99.99,VWS V12.07,2013-09-20 15:05:00,
2013-09-20 10:10:00,60.6,58.6,29.35,SW,225,0.0,0.0,93,0.00,,,-99.99,VWS V12.07,2013-09-20 15:10:00,
2013-09-20 10:15:00,60.6,58.6,29.35,WSW,248,2.2,2.2,93,0.00,,,-99.99,VWS V12.07,2013-09-20 15:15:00,
2013-09-20 10:20:00,60.6,58.6,29.35,WSW,248,0.0,2.2,93,0.00,,,-99.99,VWS V12.07,2013-09-20 15:20:00,
2013-09-20 10:25:00,60.6,58.6,29.36,West,270,0.0,2.2,93,0.00,,,-99.99,VWS V12.07,2013-09-20 15:25:00,
2013-09-20 10:30:00,60.4,58.4,29.35,NW,315,0.0,2.2,93,0.00,,,-99.99,VWS V12.07,2013-09-20 15:30:00,
2013-09-20 10:35:00,60.6,58.6,29.36,WSW,248,0.0,3.8,93,0.00,,,-99.99,VWS V12.07,2013-09-20 15:35:00,
2013-09-20 10:40:00,60.4,58.4,29.36,WNW,292,0.0,3.8,93,0.00,,,-99.99,VWS V12.07,2013-09-20 15:40:00,
2013-09-20 10:45:00,60.6,58.6,29.35,SW,225,0.0,3.8,93,0.00,,,-99.99,VWS V12.07,2013-09-20 15:45:00,
2013-09-20 10:50:00,60.6,58.6,29.36,SSW,202,0.0,0.0,93,0.00,,,-99.99,VWS V12.07,2013-09-20 15:50:00,
2013-09-20 10:55:00,60.9,58.9,29.36,SW,225,0.8,0.8,93,0.00,,,-99.99,VWS V12.07,2013-09-20 15:55:00,
2013-09-20 11:00:00,61.1,59.1,29.36,WSW,248,0.0,0.8,93,0.00,,,-99.99,VWS V12.07,2013-09-20 16:00:00,
2013-09-20 11:05:00,61.1,59.1,29.36,SSW,202,0.0,0.0,93,0.00,,,-99.99,VWS V12.07,2013-09-20 16:05:00,
2013-09-20 11:10:00,61.1,59.1,29.36,SW,225,5.3,5.3,93,0.00,,,-99.99,VWS V12.07,2013-09-20 16:10:00,
2013-09-20 11:15:00,60.9,58.9,29.36,West,270,0.0,5.3,93,0.00,,,-99.99,VWS V12.07,2013-09-20 16:15:00,
2013-09-20 11:20:00,61.1,59.1,29.35,NNW,338,6.0,6.0,93,0.00,,,-99.99,VWS V12.07,2013-09-20 16:20:00,
2013-09-20 11:25:00,61.3,59.3,29.35,SW,225,0.0,6.0,93,0.00,,,-99.99,VWS V12.07,2013-09-20 16:25:00,
2013-09-20 11:30:00,61.8,59.8,29.36,WSW,248,0.4,6.0,93,0.00,,,-99.99,VWS V12.07,2013-09-20 16:30:00,
2013-09-20 11:35:00,62.0,59.7,29.35,South,180,0.0,5.3,92,0.00,,,-99.99,VWS V12.07,2013-09-20 16:35:00,
2013-09-20 11:40:00,62.2,59.8,29.36,NW,315,0.0,5.3,92,0.00,,,-99.99,VWS V12.07,2013-09-20 16:40:00,
2013-09-20 11:45:00,62.2,59.5,29.36,SW,225,0.0,5.3,91,0.00,,,-99.99,VWS V12.07,2013-09-20 16:45:00,
2013-09-20 11:50:00,62.2,59.5,29.35,West,270,0.0,0.0,91,0.00,,,-99.99,VWS V12.07,2013-09-20 16:50:00,
2013-09-20 11:55:00,62.4,59.7,29.35,SW,225,0.0,0.0,91,0.00,,,-99.99,VWS V12.07,2013-09-20 16:55:00,
2013-09-20 12:00:00,62.7,59.7,29.35,West,270,1.3,1.3,90,0.00,,,-99.99,VWS V12.07,2013-09-20 17:00:00,
2013-09-20 12:05:00,63.1,60.1,29.35,SW,225,1.7,1.7,90,0.00,,,-99.99,VWS V12.07,2013-09-20 17:05:00,
2013-09-20 12:10:00,63.5,60.5,29.35,WSW,248,0.0,1.7,90,0.00,,,-99.99,VWS V12.07,2013-09-20 17:10:00,
2013-09-20 12:15:00,64.0,60.7,29.35,West,270,0.0,6.0,89,0.00,,,-99.99,VWS V12.07,2013-09-20 17:15:00,
2013-09-20 12:20:00,64.0,60.4,29.34,WSW,248,9.8,9.8,88,0.00,,,-99.99,VWS V12.07,2013-09-20 17:20:00,
2013-09-20 12:25:00,64.2,60.6,29.35,SSW,202,0.0,9.8,88,0.00,,,-99.99,VWS V12.07,2013-09-20 17:25:00,
2013-09-20 12:30:00,64.5,60.5,29.34,WSW,248,0.0,9.8,87,0.00,,,-99.99,VWS V12.07,2013-09-20 17:30:00,
2013-09-20 12:35:00,64.7,60.8,29.34,South,180,1.3,1.3,87,0.00,,,-99.99,VWS V12.07,2013-09-20 17:35:00,
2013-09-20 12:40:00,64.7,60.4,29.35,SW,225,2.2,2.9,86,0.00,,,-99.99,VWS V12.07,2013-09-20 17:40:00,
2013-09-20 12:45:00,64.9,60.3,29.35,SW,225,2.0,2.9,85,0.00,,,-99.99,VWS V12.07,2013-09-20 17:45:00,
2013-09-20 12:50:00,64.7,59.8,29.34,SW,225,2.4,2.4,84,0.00,,,-99.99,VWS V12.07,2013-09-20 17:50:00,
2013-09-20 12:55:00,64.9,60.0,29.34,SSW,202,0.0,2.4,84,0.00,,,-99.99,VWS V12.07,2013-09-20 17:55:00,
2013-09-20 13:00:00,65.3,60.0,29.34,SW,225,2.4,5.3,83,0.00,,,-99.99,VWS V12.07,2013-09-20 18:00:00,
2013-09-20 13:05:00,65.4,59.8,29.34,North,0,0.0,4.0,82,0.00,,,-99.99,VWS V12.07,2013-09-20 18:05:00,
2013-09-20 13:10:00,65.6,60.0,29.34,NW,315,0.0,4.0,82,0.00,,,-99.99,VWS V12.07,2013-09-20 18:10:00,
2013-09-20 13:15:00,65.8,59.8,29.34,WNW,292,0.0,4.0,81,0.00,,,-99.99,VWS V12.07,2013-09-20 18:15:00,
2013-09-20 13:20:00,65.6,59.3,29.34,WSW,248,5.1,5.1,80,0.00,,,-99.99,VWS V12.07,2013-09-20 18:20:00,
2013-09-20 13:25:00,65.8,59.5,29.33,West,270,3.8,5.1,80,0.00,,,-99.99,VWS V12.07,2013-09-20 18:25:00,
2013-09-20 13:30:00,65.8,59.1,29.33,WSW,248,0.0,5.1,79,0.00,,,-99.99,VWS V12.07,2013-09-20 18:30:00,
2013-09-20 13:35:00,65.8,58.8,29.33,West,270,0.0,0.0,78,0.00,,,-99.99,VWS V12.07,2013-09-20 18:35:00,
2013-09-20 13:40:00,66.0,59.0,29.33,SW,225,0.0,0.0,78,0.00,,,-99.99,VWS V12.07,2013-09-20 18:40:00,
2013-09-20 13:45:00,66.0,58.6,29.32,WSW,248,0.0,0.0,77,0.00,,,-99.99,VWS V12.07,2013-09-20 18:45:00,
2013-09-20 13:50:00,66.2,58.4,29.32,WSW,248,4.0,4.0,76,0.00,,,-99.99,VWS V12.07,2013-09-20 18:50:00,
2013-09-20 13:55:00,66.3,58.5,29.32,SSW,202,8.2,8.2,76,0.00,,,-99.99,VWS V12.07,2013-09-20 18:55:00,
2013-09-20 14:00:00,66.5,58.3,29.32,SW,225,0.0,8.2,75,0.00,,,-99.99,VWS V12.07,2013-09-20 19:00:00,
2013-09-20 14:05:00,66.7,58.5,29.32,SSW,202,0.0,0.0,75,0.00,,,-99.99,VWS V12.07,2013-09-20 19:05:00,
2013-09-20 14:10:00,66.7,58.5,29.33,SW,225,0.0,0.0,75,0.00,,,-99.99,VWS V12.07,2013-09-20 19:10:00,
2013-09-20 14:15:00,66.7,58.2,29.33,WNW,292,0.0,4.0,74,0.00,,,-99.99,VWS V12.07,2013-09-20 19:15:00,
2013-09-20 14:20:00,66.7,58.2,29.33,NW,315,0.0,9.1,74,0.00,,,-99.99,VWS V12.07,2013-09-20 19:20:00,
2013-09-20 14:25:00,66.7,58.2,29.34,SSW,202,0.0,9.1,74,0.00,,,-99.99,VWS V12.07,2013-09-20 19:25:00,
2013-09-20 14:30:00,66.0,57.5,29.34,NNW,338,0.0,9.1,74,0.00,,,-99.99,VWS V12.07,2013-09-20 19:30:00,
2013-09-20 14:35:00,65.1,56.6,29.34,WNW,292,0.0,0.0,74,0.00,,,-99.99,VWS V12.07,2013-09-20 19:35:00,
2013-09-20 14:40:00,64.2,55.8,29.34,West,270,3.8,3.8,74,0.00,,,-99.99,VWS V12.07,2013-09-20 19:40:00,
2013-09-20 14:45:00,63.3,55.2,29.34,NNW,338,0.0,6.2,75,0.00,,,-99.99,VWS V12.07,2013-09-20 19:45:00,
2013-09-20 14:50:00,63.1,55.8,29.34,NE,45,0.0,2.2,77,0.00,,,-99.99,VWS V12.07,2013-09-20 19:50:00,
2013-09-20 14:55:00,62.7,55.4,29.34,North,0,0.0,2.2,77,0.00,,,-99.99,VWS V12.07,2013-09-20 19:55:00,
2013-09-20 15:00:00,62.7,55.4,29.34,NNW,338,0.0,6.4,77,0.00,,,-99.99,VWS V12.07,2013-09-20 20:00:00,
2013-09-20 15:05:00,62.7,55.8,29.34,NE,45,6.0,6.0,78,0.00,,,-99.99,VWS V12.07,2013-09-20 20:05:00,
2013-09-20 15:10:00,62.6,55.7,29.34,West,270,0.0,6.0,78,0.00,,,-99.99,VWS V12.07,2013-09-20 20:10:00,
2013-09-20 15:15:00,62.2,55.3,29.35,SSW,202,0.0,6.0,78,0.00,,,-99.99,VWS V12.07,2013-09-20 20:15:00,
2013-09-20 15:20:00,61.5,54.6,29.35,WSW,248,0.0,0.0,78,0.02,,,-99.99,VWS V12.07,2013-09-20 20:20:00,
2013-09-20 15:25:00,60.9,54.3,29.35,WSW,248,0.0,0.0,79,0.04,,,-99.99,VWS V12.07,2013-09-20 20:25:00,
2013-09-20 15:30:00,60.4,54.2,29.34,WSW,248,0.0,0.0,80,0.04,,,-99.99,VWS V12.07,2013-09-20 20:30:00,
2013-09-20 15:35:00,60.0,54.2,29.35,WSW,248,0.0,0.0,81,0.04,,,-99.99,VWS V12.07,2013-09-20 20:35:00,
2013-09-20 15:40:00,59.7,54.2,29.35,SW,225,0.0,0.0,82,0.04,,,-99.99,VWS V12.07,2013-09-20 20:40:00,
2013-09-20 15:45:00,59.5,54.3,29.35,WSW,248,0.0,0.6,83,0.04,,,-99.99,VWS V12.07,2013-09-20 20:45:00,
2013-09-20 15:50:00,59.1,54.0,29.35,WNW,292,0.0,0.0,83,0.04,,,-99.99,VWS V12.07,2013-09-20 20:50:00,
2013-09-20 15:55:00,58.8,53.7,29.35,SW,225,0.0,0.0,83,0.04,,,-99.99,VWS V12.07,2013-09-20 20:55:00,
2013-09-20 16:00:00,58.8,53.7,29.35,WSW,248,2.4,2.4,83,0.04,,,-99.99,VWS V12.07,2013-09-20 21:00:00,
2013-09-20 16:05:00,58.2,53.4,29.35,WSW,248,0.0,2.4,84,0.04,,,-99.99,VWS V12.07,2013-09-20 21:05:00,
2013-09-20 16:10:00,58.1,53.3,29.36,West,270,0.0,2.4,84,0.04,,,-99.99,VWS V12.07,2013-09-20 21:10:00,
2013-09-20 16:15:00,57.7,52.9,29.36,West,270,0.0,2.4,84,0.04,,,-99.99,VWS V12.07,2013-09-20 21:15:00,
2013-09-20 16:20:00,57.7,53.2,29.35,NW,315,0.0,0.0,85,0.02,,,-99.99,VWS V12.07,2013-09-20 21:20:00,
2013-09-20 16:25:00,57.7,53.2,29.36,North,0,0.0,0.0,85,0.00,,,-99.99,VWS V12.07,2013-09-20 21:25:00,
2013-09-20 16:30:00,57.9,53.7,29.36,South,180,0.0,0.0,86,0.00,,,-99.99,VWS V12.07,2013-09-20 21:30:00,
2013-09-20 16:35:00,57.9,53.7,29.36,SW,225,0.0,0.0,86,0.00,,,-99.99,VWS V12.07,2013-09-20 21:35:00,
2013-09-20 16:40:00,57.7,53.5,29.37,NNW,338,0.0,0.0,86,0.00,,,-99.99,VWS V12.07,2013-09-20 21:40:00,
2013-09-20 16:45:00,57.5,53.0,29.37,NW,315,0.0,0.0,85,0.00,,,-99.99,VWS V12.07,2013-09-20 21:45:00,
2013-09-20 16:50:00,57.3,52.8,29.37,WNW,292,0.0,0.0,85,0.00,,,-99.99,VWS V12.07,2013-09-20 21:50:00,
2013-09-20 16:55:00,57.2,52.7,29.37,West,270,0.0,0.0,85,0.00,,,-99.99,VWS V12.07,2013-09-20 21:55:00,
2013-09-20 17:00:00,57.0,52.5,29.37,NNW,338,0.0,0.0,85,0.00,,,-99.99,VWS V12.07,2013-09-20 22:00:00,
2013-09-20 17:05:00,57.0,52.5,29.37,WSW,248,0.0,0.0,85,0.00,,,-99.99,VWS V12.07,2013-09-20 22:05:00,
2013-09-20 17:10:00,57.0,52.5,29.37,NNW,338,0.0,0.0,85,0.00,,,-99.99,VWS V12.07,2013-09-20 22:10:00,
2013-09-20 17:15:00,57.5,53.0,29.37,NE,45,3.8,3.8,85,0.00,,,-99.99,VWS V12.07,2013-09-20 22:15:00,
2013-09-20 17:20:00,57.5,52.7,29.37,West,270,0.0,3.8,84,0.00,,,-99.99,VWS V12.07,2013-09-20 22:20:00,
2013-09-20 17:25:00,57.3,52.2,29.37,SSW,202,0.0,3.8,83,0.00,,,-99.99,VWS V12.07,2013-09-20 22:25:00,
2013-09-20 17:30:00,57.0,51.9,29.37,WSW,248,0.0,3.8,83,0.00,,,-99.99,VWS V12.07,2013-09-20 22:30:00,
2013-09-20 17:35:00,56.8,51.7,29.37,West,270,0.0,0.0,83,0.00,,,-99.99,VWS V12.07,2013-09-20 22:35:00,
2013-09-20 17:40:00,56.4,51.3,29.37,West,270,0.0,0.0,83,0.00,,,-99.99,VWS V12.07,2013-09-20 22:40:00,
2013-09-20 17:45:00,56.4,51.6,29.37,NW,315,0.0,0.0,84,0.00,,,-99.99,VWS V12.07,2013-09-20 22:45:00,
2013-09-20 17:50:00,56.1,51.0,29.37,NNW,338,0.0,0.0,83,0.00,,,-99.99,VWS V12.07,2013-09-20 22:50:00,
2013-09-20 17:55:00,55.9,50.8,29.37,South,180,0.0,0.0,83,0.00,,,-99.99,VWS V12.07,2013-09-20 22:55:00,
2013-09-20 18:00:00,55.9,50.8,29.38,West,270,0.0,0.0,83,0.00,,,-99.99,VWS V12.07,2013-09-20 23:00:00,
2013-09-20 18:05:00,55.7,50.6,29.37,NW,315,0.0,0.0,83,0.00,,,-99.99,VWS V12.07,2013-09-20 23:05:00,
2013-09-20 18:10:00,55.5,50.4,29.37,NW,315,0.0,0.0,83,0.00,,,-99.99,VWS V12.07,2013-09-20 23:10:00,
2013-09-20 18:15:00,55.7,50.6,29.37,WNW,292,0.0,0.0,83,0.00,,,-99.99,VWS V12.07,2013-09-20 23:15:00,
2013-09-20 18:20:00,55.5,50.4,29.38,WNW,292,0.0,0.0,83,0.00,,,-99.99,VWS V12.07,2013-09-20 23:20:00,
2013-09-20 18:25:00,55.5,50.4,29.38,WNW,292,0.0,0.0,83,0.00,,,-99.99,VWS V12.07,2013-09-20 23:25:00,
2013-09-20 18:30:00,55.2,50.1,29.38,WNW,292,0.0,0.0,83,0.00,,,-99.99,VWS V12.07,2013-09-20 23:30:00,
2013-09-20 18:35:00,55.2,50.1,29.38,NE,45,0.0,0.0,83,0.00,,,-99.99,VWS V12.07,2013-09-20 23:35:00,
2013-09-20 18:40:00,55.0,50.3,29.38,NE,45,0.0,0.0,84,0.00,,,-99.99,VWS V12.07,2013-09-20 23:40:00,
2013-09-20 18:45:00,54.6,49.9,29.39,NE,45,0.0,0.0,84,0.00,,,-99.99,VWS V12.07,2013-09-20 23:45:00,
2013-09-20 18:50:00,54.5,49.8,29.38,NE,45,0.0,0.0,84,0.00,,,-99.99,VWS V12.07,2013-09-20 23:50:00,
2013-09-20 18:55:00,54.3,49.6,29.38,East,90,0.0,0.0,84,0.00,,,-99.99,VWS V12.07,2013-09-20 23:55:00,
2013-09-20 19:00:00,54.1,49.4,29.38,East,90,0.0,0.0,84,0.00,,,-99.99,VWS V12.07,2013-09-21 00:00:00,
2013-09-20 19:05:00,53.7,49.0,29.39,East,90,0.0,0.0,84,0.00,,,-99.99,VWS V12.07,2013-09-21 00:05:00,
2013-09-20 19:10:00,53.6,48.9,29.39,East,90,0.0,0.0,84,0.00,,,-99.99,VWS V12.07,2013-09-21 00:10:00,
2013-09-20 19:15:00,53.2,48.5,29.39,East,90,0.0,0.0,84,0.00,,,-99.99,VWS V12.07,2013-09-21 00:15:00,
2013-09-20 19:20:00,52.8,48.1,29.39,East,90,0.0,0.0,84,0.00,,,-99.99,VWS V12.07,2013-09-21 00:20:00,
2013-09-20 19:25:00,52.7,48.0,29.39,East,90,0.0,0.0,84,0.00,,,-99.99,VWS V12.07,2013-09-21 00:25:00,
2013-09-20 19:30:00,52.3,47.9,29.40,East,90,0.0,0.0,85,0.00,,,-99.99,VWS V12.07,2013-09-21 00:30:00,
2013-09-20 19:35:00,51.9,47.5,29.39,East,90,0.0,0.0,85,0.00,,,-99.99,VWS V12.07,2013-09-21 00:35:00,
2013-09-20 19:40:00,51.9,47.5,29.40,East,90,0.0,0.0,85,0.00,,,-99.99,VWS V12.07,2013-09-21 00:40:00,
2013-09-20 19:45:00,51.6,47.2,29.40,East,90,0.0,0.0,85,0.00,,,-99.99,VWS V12.07,2013-09-21 00:45:00,
2013-09-20 19:50:00,51.6,47.2,29.40,East,90,0.0,0.0,85,0.00,,,-99.99,VWS V12.07,2013-09-21 00:50:00,
2013-09-20 19:55:00,51.4,47.4,29.40,East,90,0.0,0.0,86,0.00,,,-99.99,VWS V12.07,2013-09-21 00:55:00,
2013-09-20 20:00:00,51.4,47.4,29.41,East,90,0.0,0.0,86,0.00,,,-99.99,VWS V12.07,2013-09-21 01:00:00,
2013-09-20 20:05:00,51.4,47.4,29.40,NE,45,0.0,0.0,86,0.00,,,-99.99,VWS V12.07,2013-09-21 01:05:00,
2013-09-20 20:10:00,51.4,47.4,29.40,NE,45,0.0,0.0,86,0.00,,,-99.99,VWS V12.07,2013-09-21 01:10:00,
2013-09-20 20:15:00,51.2,47.2,29.40,NE,45,0.0,0.0,86,0.00,,,-99.99,VWS V12.07,2013-09-21 01:15:00,
2013-09-20 20:20:00,51.2,47.2,29.40,NE,45,0.0,0.0,86,0.00,,,-99.99,VWS V12.07,2013-09-21 01:20:00,
2013-09-20 20:25:00,51.0,47.0,29.40,NE,45,0.0,0.0,86,0.00,,,-99.99,VWS V12.07,2013-09-21 01:25:00,
2013-09-20 20:30:00,51.0,47.0,29.41,NE,45,0.0,0.0,86,0.00,,,-99.99,VWS V12.07,2013-09-21 01:30:00,
2013-09-20 20:35:00,50.9,46.9,29.41,NE,45,0.0,0.0,86,0.00,,,-99.99,VWS V12.07,2013-09-21 01:35:00,
2013-09-20 20:40:00,50.7,46.7,29.41,NE,45,0.0,0.0,86,0.00,,,-99.99,VWS V12.07,2013-09-21 01:40:00,
2013-09-20 20:45:00,50.7,46.7,29.41,NE,45,0.0,0.0,86,0.00,,,-99.99,VWS V12.07,2013-09-21 01:45:00,
2013-09-20 20:50:00,50.5,46.5,29.41,NE,45,0.0,0.0,86,0.00,,,-99.99,VWS V12.07,2013-09-21 01:50:00,
2013-09-20 20:55:00,50.5,46.5,29.42,NE,45,0.0,0.0,86,0.00,,,-99.99,VWS V12.07,2013-09-21 01:55:00,
2013-09-20 21:00:00,50.5,46.5,29.42,NE,45,0.0,0.0,86,0.00,,,-99.99,VWS V12.07,2013-09-21 02:00:00,
2013-09-20 21:05:00,50.5,46.5,29.42,NE,45,0.0,0.0,86,0.00,,,-99.99,VWS V12.07,2013-09-21 02:05:00,
2013-09-20 21:10:00,50.5,46.5,29.42,NE,45,0.0,0.0,86,0.00,,,-99.99,VWS V12.07,2013-09-21 02:10:00,
2013-09-20 21:15:00,50.5,46.8,29.42,NE,45,0.0,0.0,87,0.00,,,-99.99,VWS V12.07,2013-09-21 02:15:00,
2013-09-20 21:20:00,50.5,46.8,29.42,NE,45,0.0,0.0,87,0.00,,,-99.99,VWS V12.07,2013-09-21 02:20:00,
2013-09-20 21:25:00,50.3,46.6,29.42,NE,45,0.0,0.0,87,0.00,,,-99.99,VWS V12.07,2013-09-21 02:25:00,
2013-09-20 21:30:00,50.3,46.6,29.42,NE,45,0.0,0.0,87,0.00,,,-99.99,VWS V12.07,2013-09-21 02:30:00,
2013-09-20 21:35:00,50.1,46.4,29.42,NE,45,0.0,0.0,87,0.00,,,-99.99,VWS V12.07,2013-09-21 02:35:00,
2013-09-20 21:40:00,50.1,46.4,29.42,NE,45,0.0,0.0,87,0.00,,,-99.99,VWS V12.07,2013-09-21 02:40:00,
2013-09-20 21:45:00,49.8,46.1,29.42,NE,45,0.0,0.0,87,0.00,,,-99.99,VWS V12.07,2013-09-21 02:45:00,
2013-09-20 21:50:00,49.8,46.1,29.42,NE,45,0.0,0.0,87,0.00,,,-99.99,VWS V12.07,2013-09-21 02:50:00,
2013-09-20 21:55:00,49.8,46.1,29.42,NE,45,0.0,0.0,87,0.00,,,-99.99,VWS V12.07,2013-09-21 02:55:00,
2013-09-20 22:00:00,49.4,45.7,29.42,NE,45,0.0,0.0,87,0.00,,,-99.99,VWS V12.07,2013-09-21 03:00:00,
2013-09-20 22:05:00,49.2,45.5,29.42,NE,45,0.0,0.0,87,0.00,,,-99.99,VWS V12.07,2013-09-21 03:05:00,
2013-09-20 22:10:00,49.1,45.4,29.42,NE,45,0.0,0.0,87,0.00,,,-99.99,VWS V12.07,2013-09-21 03:10:00,
2013-09-20 22:15:00,48.9,45.2,29.42,NE,45,0.0,0.0,87,0.00,,,-99.99,VWS V12.07,2013-09-21 03:15:00,
2013-09-20 22:20:00,48.7,45.0,29.42,NE,45,0.0,0.0,87,0.00,,,-99.99,VWS V12.07,2013-09-21 03:20:00,
2013-09-20 22:25:00,48.5,44.8,29.42,NE,45,0.0,0.0,87,0.00,,,-99.99,VWS V12.07,2013-09-21 03:25:00,
2013-09-20 22:30:00,48.2,44.5,29.42,NE,45,0.0,0.0,87,0.00,,,-99.99,VWS V12.07,2013-09-21 03:30:00,
2013-09-20 22:35:00,48.0,44.3,29.42,NE,45,0.0,0.0,87,0.00,,,-99.99,VWS V12.07,2013-09-21 03:35:00,
2013-09-20 22:40:00,47.8,44.4,29.42,NE,45,0.0,0.0,88,0.00,,,-99.99,VWS V12.07,2013-09-21 03:40:00,
2013-09-20 22:45:00,47.8,44.4,29.42,NE,45,0.0,0.0,88,0.00,,,-99.99,VWS V12.07,2013-09-21 03:45:00,
2013-09-20 22:50:00,47.6,44.2,29.42,NE,45,0.0,0.0,88,0.00,,,-99.99,VWS V12.07,2013-09-21 03:50:00,
2013-09-20 22:55:00,47.4,44.0,29.42,NE,45,0.0,0.0,88,0.00,,,-99.99,VWS V12.07,2013-09-21 03:55:00,
2013-09-20 23:00:00,47.4,44.0,29.42,NE,45,0.0,0.0,88,0.00,,,-99.99,VWS V12.07,2013-09-21 04:00:00,
2013-09-20 23:05:00,47.4,44.0,29.42,NE,45,0.0,0.0,88,0.00,,,-99.99,VWS V12.07,2013-09-21 04:05:00,
2013-09-20 23:10:00,47.4,44.0,29.42,NE,45,0.0,0.0,88,0.00,,,-99.99,VWS V12.07,2013-09-21 04:10:00,
2013-09-20 23:20:00,47.3,43.9,29.42,NE,45,0.0,0.0,88,0.00,,,-99.99,VWS V12.07,2013-09-21 04:20:00,
2013-09-20 23:25:00,47.3,43.9,29.42,NE,45,0.0,0.0,88,0.00,,,-99.99,VWS V12.07,2013-09-21 04:25:00,
2013-09-20 23:30:00,47.1,43.7,29.42,NE,45,0.0,0.0,88,0.00,,,-99.99,VWS V12.07,2013-09-21 04:30:00,
2013-09-20 23:35:00,47.1,43.7,29.42,NE,45,0.0,0.0,88,0.00,,,-99.99,VWS V12.07,2013-09-21 04:35:00,
2013-09-20 23:40:00,47.1,44.0,29.42,NE,45,0.0,0.0,89,0.00,,,-99.99,VWS V12.07,2013-09-21 04:40:00,
2013-09-20 23:45:00,47.1,44.0,29.42,NE,45,0.0,0.0,89,0.00,,,-99.99,VWS V12.07,2013-09-21 04:45:00,
2013-09-20 23:50:00,47.1,44.0,29.42,NE,45,0.0,0.0,89,0.00,,,-99.99,VWS V12.07,2013-09-21 04:50:00,